STARLINK-34967

Last updated on Sat Sep 13 2025 00:02:06 GMT+0000 (Coordinated Universal Time)

1 65177U 25175D 25255.58335648 -.02138390 00000+0 -64322-1 0 9992 2 65177 97.6020 126.8920 0001803 73.1221 37.8361 15.37649756 5925
UTC large
Height (km)
Speed (km/s)
/
Latitude / Longitude
Inclination (degrees)
Orbital Period (minutes)
Azimuth
Elevation
Range (km)
Doppler Factor

Next 0 passes for location: London (51.5072 / 0.1276)

Sorry there are no passes over London.